Regional Weather Roundup
Issued by NWS New Orleans/Baton Rouge, LA

Home | Current Version | Previous Version | Graphics & Text | Print | Product List | Glossary On
Versions: 1 2 3 4 5 6 7 8 9 10 11 12 13 14 15 16 17 18 19 20 21 22 23 24 25 26 27 28 29 30 31 32 33 34 35 36 37 38 39 40 41 42 43 44 45 46 47 48 49 50
481
ASUS44 KLIX 262105
RWRLIX
NEW ORLEANS REGIONAL WEATHER ROUNDUP
NATIONAL WEATHER SERVICE NEW ORLEANS LA
300 PM CST THU FEB 26 2015

NOTE: "FAIR" INDICATES FEW OR NO CLOUDS BELOW 12,000 FEET WITH NO
      SIGNIFICANT WEATHER AND/OR OBSTRUCTIONS TO VISIBILITY.
      SKY/WX - SKY CONDITION AND SIGNIFICANT WEATHER.
      TMP - AIR TEMPERATURE.     DP    - DEWPOINT TEMPERATURE.
      RH  - RELATIVE HUMIDITY.   PRES  - PRESSURE.
      HI  - HEAT INDEX.          WCI   - WIND CHILL INDEX.

*  THESE STATIONS ARE NOT NWS OR FAA STATIONS AND ARE NOT UNDER
   NWS QUALITY CONTROL.

LAZ038-040-048-061>063-065>067-069-262200-
SOUTHEAST LOUISIANA

CITY           SKY/WX    TMP DP  RH WIND       PRES   REMARKS
N.O. AUDUBON     N/A     47  40  74 MISG        N/A
N.O. INTL ARPT PTSUNNY   47  36  65 N14       30.10R
N.O. LAKEFRONT MOSUNNY   49  36  61 N16G22    30.10S
SLIDELL        MOSUNNY   48  35  60 N9        30.08S
BATON ROUGE    SUNNY     50  32  50 NW8       30.11R
BOOTHVILLE     CLOUDY    46  38  73 N9G17     30.07S
BELLE CHASSE   PTSUNNY   47  35  63 N13G21    30.08R
BOGALUSA*        N/A     48  33  56 NE10      30.11S
GALLIANO*      CLOUDY    49  39  67 MISG      30.08R
NEW ROADS*       N/A     50  34  54 NW12G20   30.12S
GONZALES*        N/A     49  33  52 N9        30.10S
HAMMOND*       SUNNY     50  32  50 N7        30.11S
HOUMA*         NOT AVBL
PORT FOURCHON* NOT AVBL

$$

MSZ070-080>082-262200-
SOUTHERN MISSISSIPPI

CITY           SKY/WX    TMP DP  RH WIND       PRES   REMARKS
MCCOMB         SUNNY     50  28  42 N13       30.10R
GULFPORT       MOSUNNY   48  35  60 NW13      30.06F
BILOXI         PTSUNNY   47  36  65 N13       30.06S
PASCAGOULA     CLOUDY    48  36  63 N14       30.06R
STENNIS ARPT*  MOSUNNY   46  32  57 N12G17    30.08S

$$

COASTAL OBSERVATIONS
LAKE AND NEARSHORE STATIONS

STATION/POSITION TIME  TEMP    WIND        PRES    WAVE
                       AIR SEA DIR/SP/G            HT/PER
                 (UTC) (F)     (DEG/KT/KT) (MB)    (FT/S)
PASCAGOULA       2100   47     350/ 11/ 20 1017.1
WAVELAND YACHT   2100   44 51  360/ 15/ 18 1017.8
GRAND ISLE       2100   45 53   10/ 14/ 17 1018.6
SOUTHWEST PASS   2100   46 49   10/ 15/ 19 1018.2
NEW CANAL        2100   43     360/ 12/ 17 1019.3
SHELL BEACH      2100   45 51  350/ 15/ 17 1018.3

OFFSHORE STATIONS

STATION/POSITION TIME  TEMP    WIND        PRES    WAVE
                       AIR SEA DIR/SP/G            HT/PER
                 (UTC) (F)     (DEG/KT/KT) (MB)    (FT/S)
64 S DAUPHIN ISL 2034   47 64   10/ 12/ 17 1017.2    4/ 6

$$




USA.gov is the U.S. government's official web portal to all federal, state and local government web resources and services.